owner,sensor,date,latitude,longitude,air_temperature,qcFlag 
WAVCIS,ioos:station:WAVCIS:CSI06:1,2016-07-01T00:00:00Z,28.8667,-90.4833,27.41,11111222 
WAVCIS,ioos:station:WAVCIS:CSI06:1,2016-07-01T01:00:00Z,28.8667,-90.4833,27.69,11111222 
WAVCIS,ioos:station:WAVCIS:CSI06:1,2016-07-01T02:00:00Z,28.8667,-90.4833,27.47,11111222 
WAVCIS,ioos:station:WAVCIS:CSI06:1,2016-07-01T03:00:00Z,28.8667,-90.4833,27.81,11111222 
WAVCIS,ioos:station:WAVCIS:CSI06:1,2016-07-01T04:00:00Z,28.8667,-90.4833,27.56,11111222 
WAVCIS,ioos:station:WAVCIS:CSI06:1,2016-07-01T05:00:00Z,28.8667,-90.4833,27.49,11111222 
WAVCIS,ioos:station:WAVCIS:CSI06:1,2016-07-01T06:00:00Z,28.8667,-90.4833,27.48,11111222 
WAVCIS,ioos:station:WAVCIS:CSI06:1,2016-07-01T07:00:00Z,28.8667,-90.4833,27.38,11111222 
WAVCIS,ioos:station:WAVCIS:CSI06:1,2016-07-01T08:00:00Z,28.8667,-90.4833,27.32,11111222 
WAVCIS,ioos:station:WAVCIS:CSI06:1,2016-07-01T09:00:00Z,28.8667,-90.4833,27.28,11111222 
WAVCIS,ioos:station:WAVCIS:CSI06:1,2016-07-01T10:00:00Z,28.8667,-90.4833,27.35,11111222 
WAVCIS,ioos:station:WAVCIS:CSI06:1,2016-07-01T11:00:00Z,28.8667,-90.4833,27.45,11111222 
WAVCIS,ioos:station:WAVCIS:CSI06:1,2016-07-01T12:00:00Z,28.8667,-90.4833,27.83,11111222 
WAVCIS,ioos:station:WAVCIS:CSI06:1,2016-07-01T13:00:00Z,28.8667,-90.4833,28.68,11111222 
WAVCIS,ioos:station:WAVCIS:CSI06:1,2016-07-01T14:00:00Z,28.8667,-90.4833,28.96,11111222 
WAVCIS,ioos:station:WAVCIS:CSI06:1,2016-07-01T15:00:00Z,28.8667,-90.4833,28.78,11111222 
WAVCIS,ioos:station:WAVCIS:CSI06:1,2016-07-01T16:00:00Z,28.8667,-90.4833,28.37,11111222 
WAVCIS,ioos:station:WAVCIS:CSI06:1,2016-07-01T17:00:00Z,28.8667,-90.4833,29.11,11111222 
WAVCIS,ioos:station:WAVCIS:CSI06:1,2016-07-01T18:00:00Z,28.8667,-90.4833,29.46,11111222 
WAVCIS,ioos:station:WAVCIS:CSI06:1,2016-07-01T19:00:00Z,28.8667,-90.4833,30.01,11111222 
WAVCIS,ioos:station:WAVCIS:CSI06:1,2016-07-01T20:00:00Z,28.8667,-90.4833,30.02,11111222 
WAVCIS,ioos:station:WAVCIS:CSI06:1,2016-07-01T21:00:00Z,28.8667,-90.4833,29.79,11111222 
WAVCIS,ioos:station:WAVCIS:CSI06:1,2016-07-01T22:00:00Z,28.8667,-90.4833,31.38,11111222 
WAVCIS,ioos:station:WAVCIS:CSI06:1,2016-07-01T23:00:00Z,28.8667,-90.4833,32.13,11111222 
WAVCIS,ioos:station:WAVCIS:CSI06:1,2016-07-02T00:00:00Z,28.8667,-90.4833,30.95,11111222 
WAVCIS,ioos:station:WAVCIS:CSI06:1,2016-07-02T01:00:00Z,28.8667,-90.4833,30.05,11111222 
WAVCIS,ioos:station:WAVCIS:CSI06:1,2016-07-02T02:00:00Z,28.8667,-90.4833,29.41,11111222 
WAVCIS,ioos:station:WAVCIS:CSI06:1,2016-07-02T03:00:00Z,28.8667,-90.4833,29.43,11111222 
WAVCIS,ioos:station:WAVCIS:CSI06:1,2016-07-02T04:00:00Z,28.8667,-90.4833,29.33,11111222 
WAVCIS,ioos:station:WAVCIS:CSI06:1,2016-07-02T05:00:00Z,28.8667,-90.4833,29.24,11111222 
WAVCIS,ioos:station:WAVCIS:CSI06:1,2016-07-02T06:00:00Z,28.8667,-90.4833,29.09,11111222 
WAVCIS,ioos:station:WAVCIS:CSI06:1,2016-07-02T07:00:00Z,28.8667,-90.4833,28.94,11111222 
WAVCIS,ioos:station:WAVCIS:CSI06:1,2016-07-02T08:00:00Z,28.8667,-90.4833,28.82,11111222 
WAVCIS,ioos:station:WAVCIS:CSI06:1,2016-07-02T09:00:00Z,28.8667,-90.4833,28.56,11111222 
WAVCIS,ioos:station:WAVCIS:CSI06:1,2016-07-02T10:00:00Z,28.8667,-90.4833,28.63,11111222 
WAVCIS,ioos:station:WAVCIS:CSI06:1,2016-07-02T11:00:00Z,28.8667,-90.4833,28.68,11111222 
WAVCIS,ioos:station:WAVCIS:CSI06:1,2016-07-02T12:00:00Z,28.8667,-90.4833,29.09,11111222 
WAVCIS,ioos:station:WAVCIS:CSI06:1,2016-07-02T13:00:00Z,28.8667,-90.4833,30.42,11111222 
WAVCIS,ioos:station:WAVCIS:CSI06:1,2016-07-02T14:00:00Z,28.8667,-90.4833,30.1,11111222 
WAVCIS,ioos:station:WAVCIS:CSI06:1,2016-07-02T15:00:00Z,28.8667,-90.4833,30.89,11111222 
WAVCIS,ioos:station:WAVCIS:CSI06:1,2016-07-02T16:00:00Z,28.8667,-90.4833,31.66,11111222 
WAVCIS,ioos:station:WAVCIS:CSI06:1,2016-07-02T17:00:00Z,28.8667,-90.4833,31.97,11111222 
WAVCIS,ioos:station:WAVCIS:CSI06:1,2016-07-02T18:00:00Z,28.8667,-90.4833,31.77,11111222 
WAVCIS,ioos:station:WAVCIS:CSI06:1,2016-07-02T19:00:00Z,28.8667,-90.4833,31.84,11111222 
WAVCIS,ioos:station:WAVCIS:CSI06:1,2016-07-02T20:00:00Z,28.8667,-90.4833,30.69,11111222 
WAVCIS,ioos:station:WAVCIS:CSI06:1,2016-07-02T21:00:00Z,28.8667,-90.4833,30.38,11111222 
WAVCIS,ioos:station:WAVCIS:CSI06:1,2016-07-02T22:00:00Z,28.8667,-90.4833,30.49,11111222 
WAVCIS,ioos:station:WAVCIS:CSI06:1,2016-07-02T23:00:00Z,28.8667,-90.4833,30.39,11111222 
WAVCIS,ioos:station:WAVCIS:CSI06:1,2016-07-03T00:00:00Z,28.8667,-90.4833,30.46,11111222 
WAVCIS,ioos:station:WAVCIS:CSI06:1,2016-07-03T01:00:00Z,28.8667,-90.4833,30.1,11111222 
WAVCIS,ioos:station:WAVCIS:CSI06:1,2016-07-03T02:00:00Z,28.8667,-90.4833,29.93,11111222 
WAVCIS,ioos:station:WAVCIS:CSI06:1,2016-07-03T03:00:00Z,28.8667,-90.4833,29.84,11111222 
WAVCIS,ioos:station:WAVCIS:CSI06:1,2016-07-03T04:00:00Z,28.8667,-90.4833,29.7,11111222 
WAVCIS,ioos:station:WAVCIS:CSI06:1,2016-07-03T05:00:00Z,28.8667,-90.4833,29.57,11111222 
WAVCIS,ioos:station:WAVCIS:CSI06:1,2016-07-03T06:00:00Z,28.8667,-90.4833,29.44,11111222 
WAVCIS,ioos:station:WAVCIS:CSI06:1,2016-07-03T07:00:00Z,28.8667,-90.4833,29.38,11111222 
WAVCIS,ioos:station:WAVCIS:CSI06:1,2016-07-03T08:00:00Z,28.8667,-90.4833,29.35,11111222 
WAVCIS,ioos:station:WAVCIS:CSI06:1,2016-07-03T09:00:00Z,28.8667,-90.4833,29.31,11111222 
WAVCIS,ioos:station:WAVCIS:CSI06:1,2016-07-03T10:00:00Z,28.8667,-90.4833,29.54,11111222 
WAVCIS,ioos:station:WAVCIS:CSI06:1,2016-07-03T11:00:00Z,28.8667,-90.4833,29.41,11111222 
WAVCIS,ioos:station:WAVCIS:CSI06:1,2016-07-03T12:00:00Z,28.8667,-90.4833,29.61,11111222 
WAVCIS,ioos:station:WAVCIS:CSI06:1,2016-07-03T13:00:00Z,28.8667,-90.4833,29.56,11111222 
WAVCIS,ioos:station:WAVCIS:CSI06:1,2016-07-03T14:00:00Z,28.8667,-90.4833,29.41,11111222 
WAVCIS,ioos:station:WAVCIS:CSI06:1,2016-07-03T15:00:00Z,28.8667,-90.4833,29.4,11111222 
WAVCIS,ioos:station:WAVCIS:CSI06:1,2016-07-03T16:00:00Z,28.8667,-90.4833,29.5,11111222 
WAVCIS,ioos:station:WAVCIS:CSI06:1,2016-07-03T17:00:00Z,28.8667,-90.4833,29.6,11111222 
WAVCIS,ioos:station:WAVCIS:CSI06:1,2016-07-03T18:00:00Z,28.8667,-90.4833,29.79,11111222 
WAVCIS,ioos:station:WAVCIS:CSI06:1,2016-07-03T19:00:00Z,28.8667,-90.4833,29.86,11111222 
WAVCIS,ioos:station:WAVCIS:CSI06:1,2016-07-03T20:00:00Z,28.8667,-90.4833,29.96,11111222 
WAVCIS,ioos:station:WAVCIS:CSI06:1,2016-07-03T21:00:00Z,28.8667,-90.4833,30.14,11111222 
WAVCIS,ioos:station:WAVCIS:CSI06:1,2016-07-03T22:00:00Z,28.8667,-90.4833,30.35,11111222 
WAVCIS,ioos:station:WAVCIS:CSI06:1,2016-07-03T23:00:00Z,28.8667,-90.4833,30.25,11111222 
WAVCIS,ioos:station:WAVCIS:CSI06:1,2016-07-04T00:00:00Z,28.8667,-90.4833,30.25,11111222 
WAVCIS,ioos:station:WAVCIS:CSI06:1,2016-07-04T01:00:00Z,28.8667,-90.4833,29.84,11111222 
WAVCIS,ioos:station:WAVCIS:CSI06:1,2016-07-04T02:00:00Z,28.8667,-90.4833,29.85,11111222 
WAVCIS,ioos:station:WAVCIS:CSI06:1,2016-07-04T03:00:00Z,28.8667,-90.4833,29.85,11111222 
WAVCIS,ioos:station:WAVCIS:CSI06:1,2016-07-04T04:00:00Z,28.8667,-90.4833,29.84,11111222 
WAVCIS,ioos:station:WAVCIS:CSI06:1,2016-07-04T05:00:00Z,28.8667,-90.4833,29.79,11111222 
WAVCIS,ioos:station:WAVCIS:CSI06:1,2016-07-04T06:00:00Z,28.8667,-90.4833,29.76,11111222 
WAVCIS,ioos:station:WAVCIS:CSI06:1,2016-07-04T07:00:00Z,28.8667,-90.4833,29.66,11111222 
WAVCIS,ioos:station:WAVCIS:CSI06:1,2016-07-04T08:00:00Z,28.8667,-90.4833,29.52,11111222 
WAVCIS,ioos:station:WAVCIS:CSI06:1,2016-07-04T09:00:00Z,28.8667,-90.4833,29.54,11111222 
WAVCIS,ioos:station:WAVCIS:CSI06:1,2016-07-04T10:00:00Z,28.8667,-90.4833,29.54,11111222 
WAVCIS,ioos:station:WAVCIS:CSI06:1,2016-07-04T11:00:00Z,28.8667,-90.4833,29.54,11111222 
WAVCIS,ioos:station:WAVCIS:CSI06:1,2016-07-04T12:00:00Z,28.8667,-90.4833,29.74,11111222 
WAVCIS,ioos:station:WAVCIS:CSI06:1,2016-07-04T13:00:00Z,28.8667,-90.4833,29.7,11111222 
WAVCIS,ioos:station:WAVCIS:CSI06:1,2016-07-04T14:00:00Z,28.8667,-90.4833,29.81,11111222 
WAVCIS,ioos:station:WAVCIS:CSI06:1,2016-07-04T15:00:00Z,28.8667,-90.4833,29.82,11111222 
WAVCIS,ioos:station:WAVCIS:CSI06:1,2016-07-04T16:00:00Z,28.8667,-90.4833,29.98,11111222 
WAVCIS,ioos:station:WAVCIS:CSI06:1,2016-07-04T17:00:00Z,28.8667,-90.4833,29.92,11111222 
WAVCIS,ioos:station:WAVCIS:CSI06:1,2016-07-04T18:00:00Z,28.8667,-90.4833,29.95,11111222 
WAVCIS,ioos:station:WAVCIS:CSI06:1,2016-07-04T19:00:00Z,28.8667,-90.4833,29.95,11111222 
WAVCIS,ioos:station:WAVCIS:CSI06:1,2016-07-04T20:00:00Z,28.8667,-90.4833,30.01,11111222 
WAVCIS,ioos:station:WAVCIS:CSI06:1,2016-07-04T21:00:00Z,28.8667,-90.4833,30.12,11111222 
WAVCIS,ioos:station:WAVCIS:CSI06:1,2016-07-04T22:00:00Z,28.8667,-90.4833,30.25,11111222 
WAVCIS,ioos:station:WAVCIS:CSI06:1,2016-07-04T23:00:00Z,28.8667,-90.4833,30.18,11111222 
WAVCIS,ioos:station:WAVCIS:CSI06:1,2016-07-05T00:00:00Z,28.8667,-90.4833,30.24,11111222 
WAVCIS,ioos:station:WAVCIS:CSI06:1,2016-07-05T01:00:00Z,28.8667,-90.4833,29.86,11111222 
WAVCIS,ioos:station:WAVCIS:CSI06:1,2016-07-05T02:00:00Z,28.8667,-90.4833,29.88,11111222 
WAVCIS,ioos:station:WAVCIS:CSI06:1,2016-07-05T03:00:00Z,28.8667,-90.4833,29.91,11111222 
WAVCIS,ioos:station:WAVCIS:CSI06:1,2016-07-05T04:00:00Z,28.8667,-90.4833,29.89,11111222 
WAVCIS,ioos:station:WAVCIS:CSI06:1,2016-07-05T05:00:00Z,28.8667,-90.4833,29.81,11111222 
WAVCIS,ioos:station:WAVCIS:CSI06:1,2016-07-05T06:00:00Z,28.8667,-90.4833,29.7,11111222 
WAVCIS,ioos:station:WAVCIS:CSI06:1,2016-07-05T07:00:00Z,28.8667,-90.4833,29.66,11111222 
WAVCIS,ioos:station:WAVCIS:CSI06:1,2016-07-05T08:00:00Z,28.8667,-90.4833,29.66,11111222 
WAVCIS,ioos:station:WAVCIS:CSI06:1,2016-07-05T09:00:00Z,28.8667,-90.4833,29.68,11111222 
WAVCIS,ioos:station:WAVCIS:CSI06:1,2016-07-05T10:00:00Z,28.8667,-90.4833,29.75,11111222 
WAVCIS,ioos:station:WAVCIS:CSI06:1,2016-07-05T11:00:00Z,28.8667,-90.4833,29.83,11111222 
WAVCIS,ioos:station:WAVCIS:CSI06:1,2016-07-05T12:00:00Z,28.8667,-90.4833,29.88,11111222 
WAVCIS,ioos:station:WAVCIS:CSI06:1,2016-07-05T13:00:00Z,28.8667,-90.4833,29.82,11111222 
WAVCIS,ioos:station:WAVCIS:CSI06:1,2016-07-05T14:00:00Z,28.8667,-90.4833,29.97,11111222 
WAVCIS,ioos:station:WAVCIS:CSI06:1,2016-07-05T15:00:00Z,28.8667,-90.4833,30.05,11111222 
WAVCIS,ioos:station:WAVCIS:CSI06:1,2016-07-05T16:00:00Z,28.8667,-90.4833,30.13,11111222 
WAVCIS,ioos:station:WAVCIS:CSI06:1,2016-07-05T17:00:00Z,28.8667,-90.4833,30.31,11111222 
WAVCIS,ioos:station:WAVCIS:CSI06:1,2016-07-05T18:00:00Z,28.8667,-90.4833,30.33,11111222 
WAVCIS,ioos:station:WAVCIS:CSI06:1,2016-07-05T19:00:00Z,28.8667,-90.4833,30.44,11111222 
WAVCIS,ioos:station:WAVCIS:CSI06:1,2016-07-05T20:00:00Z,28.8667,-90.4833,30.6,11111222 
WAVCIS,ioos:station:WAVCIS:CSI06:1,2016-07-05T21:00:00Z,28.8667,-90.4833,30.58,11111222 
WAVCIS,ioos:station:WAVCIS:CSI06:1,2016-07-05T22:00:00Z,28.8667,-90.4833,30.6,11111222 
WAVCIS,ioos:station:WAVCIS:CSI06:1,2016-07-05T23:00:00Z,28.8667,-90.4833,30.77,11111222 
WAVCIS,ioos:station:WAVCIS:CSI06:1,2016-07-06T00:00:00Z,28.8667,-90.4833,30.47,11111222 
WAVCIS,ioos:station:WAVCIS:CSI06:1,2016-07-06T01:00:00Z,28.8667,-90.4833,30.05,11111222 
WAVCIS,ioos:station:WAVCIS:CSI06:1,2016-07-06T02:00:00Z,28.8667,-90.4833,29.93,11111222 
WAVCIS,ioos:station:WAVCIS:CSI06:1,2016-07-06T03:00:00Z,28.8667,-90.4833,29.99,11111222 
WAVCIS,ioos:station:WAVCIS:CSI06:1,2016-07-06T04:00:00Z,28.8667,-90.4833,29.97,11111222 
WAVCIS,ioos:station:WAVCIS:CSI06:1,2016-07-06T05:00:00Z,28.8667,-90.4833,29.87,11111222 
WAVCIS,ioos:station:WAVCIS:CSI06:1,2016-07-06T06:00:00Z,28.8667,-90.4833,29.86,11111222 
WAVCIS,ioos:station:WAVCIS:CSI06:1,2016-07-06T07:00:00Z,28.8667,-90.4833,29.75,11111222 
WAVCIS,ioos:station:WAVCIS:CSI06:1,2016-07-06T08:00:00Z,28.8667,-90.4833,29.63,11111222 
WAVCIS,ioos:station:WAVCIS:CSI06:1,2016-07-06T09:00:00Z,28.8667,-90.4833,29.62,11111222 
WAVCIS,ioos:station:WAVCIS:CSI06:1,2016-07-06T10:00:00Z,28.8667,-90.4833,29.58,11111222 
WAVCIS,ioos:station:WAVCIS:CSI06:1,2016-07-06T11:00:00Z,28.8667,-90.4833,29.64,11111222 
WAVCIS,ioos:station:WAVCIS:CSI06:1,2016-07-06T12:00:00Z,28.8667,-90.4833,29.52,11111222 
WAVCIS,ioos:station:WAVCIS:CSI06:1,2016-07-06T13:00:00Z,28.8667,-90.4833,29.79,11111222 
WAVCIS,ioos:station:WAVCIS:CSI06:1,2016-07-06T14:00:00Z,28.8667,-90.4833,29.92,11111222 
WAVCIS,ioos:station:WAVCIS:CSI06:1,2016-07-06T15:00:00Z,28.8667,-90.4833,30.03,11111222 
WAVCIS,ioos:station:WAVCIS:CSI06:1,2016-07-06T16:00:00Z,28.8667,-90.4833,30.07,11111222 
WAVCIS,ioos:station:WAVCIS:CSI06:1,2016-07-06T17:00:00Z,28.8667,-90.4833,30.29,11111222 
WAVCIS,ioos:station:WAVCIS:CSI06:1,2016-07-06T18:00:00Z,28.8667,-90.4833,30.44,11111222 
WAVCIS,ioos:station:WAVCIS:CSI06:1,2016-07-06T19:00:00Z,28.8667,-90.4833,30.66,11111222 
WAVCIS,ioos:station:WAVCIS:CSI06:1,2016-07-06T20:00:00Z,28.8667,-90.4833,30.49,11111222 
WAVCIS,ioos:station:WAVCIS:CSI06:1,2016-07-06T21:00:00Z,28.8667,-90.4833,30.68,11111222 
WAVCIS,ioos:station:WAVCIS:CSI06:1,2016-07-06T22:00:00Z,28.8667,-90.4833,30.68,11111222 
WAVCIS,ioos:station:WAVCIS:CSI06:1,2016-07-06T23:00:00Z,28.8667,-90.4833,30.84,11111222 
WAVCIS,ioos:station:WAVCIS:CSI06:1,2016-07-07T00:00:00Z,28.8667,-90.4833,30.56,11111222 
WAVCIS,ioos:station:WAVCIS:CSI06:1,2016-07-07T01:00:00Z,28.8667,-90.4833,30.11,11111222 
WAVCIS,ioos:station:WAVCIS:CSI06:1,2016-07-07T02:00:00Z,28.8667,-90.4833,30.0,11111222 
WAVCIS,ioos:station:WAVCIS:CSI06:1,2016-07-07T03:00:00Z,28.8667,-90.4833,30.04,11111222 
WAVCIS,ioos:station:WAVCIS:CSI06:1,2016-07-07T04:00:00Z,28.8667,-90.4833,29.97,11111222 
WAVCIS,ioos:station:WAVCIS:CSI06:1,2016-07-07T05:00:00Z,28.8667,-90.4833,29.86,11111222 
WAVCIS,ioos:station:WAVCIS:CSI06:1,2016-07-07T06:00:00Z,28.8667,-90.4833,29.83,11111222 
WAVCIS,ioos:station:WAVCIS:CSI06:1,2016-07-07T07:00:00Z,28.8667,-90.4833,29.72,11111222 
WAVCIS,ioos:station:WAVCIS:CSI06:1,2016-07-07T08:00:00Z,28.8667,-90.4833,29.75,11111222 
WAVCIS,ioos:station:WAVCIS:CSI06:1,2016-07-07T09:00:00Z,28.8667,-90.4833,29.87,11111222 
WAVCIS,ioos:station:WAVCIS:CSI06:1,2016-07-07T10:00:00Z,28.8667,-90.4833,29.8,11111222 
WAVCIS,ioos:station:WAVCIS:CSI06:1,2016-07-07T11:00:00Z,28.8667,-90.4833,29.87,11111222 
WAVCIS,ioos:station:WAVCIS:CSI06:1,2016-07-07T12:00:00Z,28.8667,-90.4833,29.92,11111222 
WAVCIS,ioos:station:WAVCIS:CSI06:1,2016-07-07T13:00:00Z,28.8667,-90.4833,30.11,11111222 
WAVCIS,ioos:station:WAVCIS:CSI06:1,2016-07-07T14:00:00Z,28.8667,-90.4833,30.2,11111222 
WAVCIS,ioos:station:WAVCIS:CSI06:1,2016-07-07T15:00:00Z,28.8667,-90.4833,30.25,11111222 
WAVCIS,ioos:station:WAVCIS:CSI06:1,2016-07-07T16:00:00Z,28.8667,-90.4833,30.25,11111222 
WAVCIS,ioos:station:WAVCIS:CSI06:1,2016-07-07T17:00:00Z,28.8667,-90.4833,30.34,11111222 
WAVCIS,ioos:station:WAVCIS:CSI06:1,2016-07-07T18:00:00Z,28.8667,-90.4833,30.62,11111222 
WAVCIS,ioos:station:WAVCIS:CSI06:1,2016-07-07T19:00:00Z,28.8667,-90.4833,30.59,11111222 
WAVCIS,ioos:station:WAVCIS:CSI06:1,2016-07-07T20:00:00Z,28.8667,-90.4833,30.69,11111222 
WAVCIS,ioos:station:WAVCIS:CSI06:1,2016-07-07T21:00:00Z,28.8667,-90.4833,30.87,11111222 
WAVCIS,ioos:station:WAVCIS:CSI06:1,2016-07-07T22:00:00Z,28.8667,-90.4833,31.13,11111222 
WAVCIS,ioos:station:WAVCIS:CSI06:1,2016-07-07T23:00:00Z,28.8667,-90.4833,30.88,11111222 
WAVCIS,ioos:station:WAVCIS:CSI06:1,2016-07-08T00:00:00Z,28.8667,-90.4833,30.78,11111222 
WAVCIS,ioos:station:WAVCIS:CSI06:1,2016-07-08T01:00:00Z,28.8667,-90.4833,30.3,11111222 
WAVCIS,ioos:station:WAVCIS:CSI06:1,2016-07-08T02:00:00Z,28.8667,-90.4833,30.29,11111222 
WAVCIS,ioos:station:WAVCIS:CSI06:1,2016-07-08T03:00:00Z,28.8667,-90.4833,30.21,11111222 
WAVCIS,ioos:station:WAVCIS:CSI06:1,2016-07-08T04:00:00Z,28.8667,-90.4833,30.24,11111222 
WAVCIS,ioos:station:WAVCIS:CSI06:1,2016-07-08T05:00:00Z,28.8667,-90.4833,30.12,11111222 
WAVCIS,ioos:station:WAVCIS:CSI06:1,2016-07-08T06:00:00Z,28.8667,-90.4833,29.9,11111222 
WAVCIS,ioos:station:WAVCIS:CSI06:1,2016-07-08T07:00:00Z,28.8667,-90.4833,29.97,11111222 
WAVCIS,ioos:station:WAVCIS:CSI06:1,2016-07-08T08:00:00Z,28.8667,-90.4833,29.88,11111222 
WAVCIS,ioos:station:WAVCIS:CSI06:1,2016-07-08T09:00:00Z,28.8667,-90.4833,29.36,11111222 
WAVCIS,ioos:station:WAVCIS:CSI06:1,2016-07-08T10:00:00Z,28.8667,-90.4833,29.83,11111222 
WAVCIS,ioos:station:WAVCIS:CSI06:1,2016-07-08T11:00:00Z,28.8667,-90.4833,29.85,11111222 
WAVCIS,ioos:station:WAVCIS:CSI06:1,2016-07-08T12:00:00Z,28.8667,-90.4833,29.87,11111222 
WAVCIS,ioos:station:WAVCIS:CSI06:1,2016-07-08T13:00:00Z,28.8667,-90.4833,30.05,11111222 
WAVCIS,ioos:station:WAVCIS:CSI06:1,2016-07-08T14:00:00Z,28.8667,-90.4833,30.18,11111222 
WAVCIS,ioos:station:WAVCIS:CSI06:1,2016-07-08T15:00:00Z,28.8667,-90.4833,30.3,11111222 
WAVCIS,ioos:station:WAVCIS:CSI06:1,2016-07-08T16:00:00Z,28.8667,-90.4833,30.49,11111222 
WAVCIS,ioos:station:WAVCIS:CSI06:1,2016-07-08T17:00:00Z,28.8667,-90.4833,30.7,11111222 
WAVCIS,ioos:station:WAVCIS:CSI06:1,2016-07-08T18:00:00Z,28.8667,-90.4833,30.83,11111222 
WAVCIS,ioos:station:WAVCIS:CSI06:1,2016-07-08T19:00:00Z,28.8667,-90.4833,31.47,11111222 
WAVCIS,ioos:station:WAVCIS:CSI06:1,2016-07-08T23:00:00Z,28.8667,-90.4833,30.1,11111222 
WAVCIS,ioos:station:WAVCIS:CSI06:1,2016-07-09T02:00:00Z,28.8667,-90.4833,30.0,11111222 
WAVCIS,ioos:station:WAVCIS:CSI06:1,2016-07-09T03:00:00Z,28.8667,-90.4833,30.1,11111222 
WAVCIS,ioos:station:WAVCIS:CSI06:1,2016-07-09T04:00:00Z,28.8667,-90.4833,30.2,11111222 
WAVCIS,ioos:station:WAVCIS:CSI06:1,2016-07-09T05:00:00Z,28.8667,-90.4833,30.0,11111222 
WAVCIS,ioos:station:WAVCIS:CSI06:1,2016-07-09T11:00:00Z,28.8667,-90.4833,29.6,11111222 
WAVCIS,ioos:station:WAVCIS:CSI06:1,2016-07-10T19:00:00Z,28.8667,-90.4833,33.1,11111222 
WAVCIS,ioos:station:WAVCIS:CSI06:1,2016-07-10T22:00:00Z,28.8667,-90.4833,30.8,11111222 
WAVCIS,ioos:station:WAVCIS:CSI06:1,2016-07-11T10:00:00Z,28.8667,-90.4833,29.9,11111222 
WAVCIS,ioos:station:WAVCIS:CSI06:1,2016-07-11T15:00:00Z,28.8667,-90.4833,30.2,11111222 
WAVCIS,ioos:station:WAVCIS:CSI06:1,2016-07-11T16:00:00Z,28.8667,-90.4833,30.3,11111222 
WAVCIS,ioos:station:WAVCIS:CSI06:1,2016-07-11T17:00:00Z,28.8667,-90.4833,30.4,11111222 
WAVCIS,ioos:station:WAVCIS:CSI06:1,2016-07-11T18:00:00Z,28.8667,-90.4833,30.5,11111222 
WAVCIS,ioos:station:WAVCIS:CSI06:1,2016-07-11T19:00:00Z,28.8667,-90.4833,30.5,11111222 
WAVCIS,ioos:station:WAVCIS:CSI06:1,2016-07-13T22:00:00Z,28.8667,-90.4833,31.15,11111222 
WAVCIS,ioos:station:WAVCIS:CSI06:1,2016-07-13T23:00:00Z,28.8667,-90.4833,30.64,11111222 
WAVCIS,ioos:station:WAVCIS:CSI06:1,2016-07-14T00:00:00Z,28.8667,-90.4833,30.54,11111222 
WAVCIS,ioos:station:WAVCIS:CSI06:1,2016-07-14T01:00:00Z,28.8667,-90.4833,30.12,11111222 
WAVCIS,ioos:station:WAVCIS:CSI06:1,2016-07-14T02:00:00Z,28.8667,-90.4833,30.28,11111222 
WAVCIS,ioos:station:WAVCIS:CSI06:1,2016-07-14T03:00:00Z,28.8667,-90.4833,30.26,11111222 
WAVCIS,ioos:station:WAVCIS:CSI06:1,2016-07-14T04:00:00Z,28.8667,-90.4833,30.22,11111222 
WAVCIS,ioos:station:WAVCIS:CSI06:1,2016-07-14T05:00:00Z,28.8667,-90.4833,30.18,11111222 
WAVCIS,ioos:station:WAVCIS:CSI06:1,2016-07-14T06:00:00Z,28.8667,-90.4833,30.16,11111222 
WAVCIS,ioos:station:WAVCIS:CSI06:1,2016-07-14T07:00:00Z,28.8667,-90.4833,30.12,11111222 
WAVCIS,ioos:station:WAVCIS:CSI06:1,2016-07-14T08:00:00Z,28.8667,-90.4833,30.07,11111222 
WAVCIS,ioos:station:WAVCIS:CSI06:1,2016-07-14T09:00:00Z,28.8667,-90.4833,30.08,11111222 
WAVCIS,ioos:station:WAVCIS:CSI06:1,2016-07-14T10:00:00Z,28.8667,-90.4833,30.13,11111222 
WAVCIS,ioos:station:WAVCIS:CSI06:1,2016-07-14T11:00:00Z,28.8667,-90.4833,30.09,11111222 
WAVCIS,ioos:station:WAVCIS:CSI06:1,2016-07-14T12:00:00Z,28.8667,-90.4833,29.95,11111222 
WAVCIS,ioos:station:WAVCIS:CSI06:1,2016-07-14T13:00:00Z,28.8667,-90.4833,30.32,11111222 
WAVCIS,ioos:station:WAVCIS:CSI06:1,2016-07-14T14:00:00Z,28.8667,-90.4833,30.25,11111222 
WAVCIS,ioos:station:WAVCIS:CSI06:1,2016-07-14T15:00:00Z,28.8667,-90.4833,30.34,11111222 
WAVCIS,ioos:station:WAVCIS:CSI06:1,2016-07-14T16:00:00Z,28.8667,-90.4833,28.99,11111222 
WAVCIS,ioos:station:WAVCIS:CSI06:1,2016-07-14T17:00:00Z,28.8667,-90.4833,29.41,11111222 
WAVCIS,ioos:station:WAVCIS:CSI06:1,2016-07-14T18:00:00Z,28.8667,-90.4833,31.27,11111222 
WAVCIS,ioos:station:WAVCIS:CSI06:1,2016-07-14T19:00:00Z,28.8667,-90.4833,29.32,11111222 
WAVCIS,ioos:station:WAVCIS:CSI06:1,2016-07-14T20:00:00Z,28.8667,-90.4833,28.27,11111222 
WAVCIS,ioos:station:WAVCIS:CSI06:1,2016-07-14T21:00:00Z,28.8667,-90.4833,26.93,11111222 
WAVCIS,ioos:station:WAVCIS:CSI06:1,2016-07-14T22:00:00Z,28.8667,-90.4833,27.71,11111222 
WAVCIS,ioos:station:WAVCIS:CSI06:1,2016-07-14T23:00:00Z,28.8667,-90.4833,28.23,11111222 
WAVCIS,ioos:station:WAVCIS:CSI06:1,2016-07-15T00:00:00Z,28.8667,-90.4833,29.31,11111222 
WAVCIS,ioos:station:WAVCIS:CSI06:1,2016-07-15T01:00:00Z,28.8667,-90.4833,29.64,11111222 
WAVCIS,ioos:station:WAVCIS:CSI06:1,2016-07-15T02:00:00Z,28.8667,-90.4833,29.19,11111222 
WAVCIS,ioos:station:WAVCIS:CSI06:1,2016-07-15T03:00:00Z,28.8667,-90.4833,29.07,11111222 
WAVCIS,ioos:station:WAVCIS:CSI06:1,2016-07-15T04:00:00Z,28.8667,-90.4833,29.34,11111222 
WAVCIS,ioos:station:WAVCIS:CSI06:1,2016-07-15T05:00:00Z,28.8667,-90.4833,29.36,11111222 
WAVCIS,ioos:station:WAVCIS:CSI06:1,2016-07-15T06:00:00Z,28.8667,-90.4833,29.03,11111222 
WAVCIS,ioos:station:WAVCIS:CSI06:1,2016-07-15T07:00:00Z,28.8667,-90.4833,28.95,11111222 
WAVCIS,ioos:station:WAVCIS:CSI06:1,2016-07-15T08:00:00Z,28.8667,-90.4833,28.96,11111222 
WAVCIS,ioos:station:WAVCIS:CSI06:1,2016-07-15T09:00:00Z,28.8667,-90.4833,28.89,11111222 
WAVCIS,ioos:station:WAVCIS:CSI06:1,2016-07-15T10:00:00Z,28.8667,-90.4833,28.9,11111222 
WAVCIS,ioos:station:WAVCIS:CSI06:1,2016-07-15T11:00:00Z,28.8667,-90.4833,29.1,11111222 
WAVCIS,ioos:station:WAVCIS:CSI06:1,2016-07-15T12:00:00Z,28.8667,-90.4833,29.25,11111222 
WAVCIS,ioos:station:WAVCIS:CSI06:1,2016-07-15T13:00:00Z,28.8667,-90.4833,29.34,11111222 
WAVCIS,ioos:station:WAVCIS:CSI06:1,2016-07-15T14:00:00Z,28.8667,-90.4833,29.48,11111222 
WAVCIS,ioos:station:WAVCIS:CSI06:1,2016-07-15T15:00:00Z,28.8667,-90.4833,30.13,11111222 
WAVCIS,ioos:station:WAVCIS:CSI06:1,2016-07-15T16:00:00Z,28.8667,-90.4833,30.4,11111222 
WAVCIS,ioos:station:WAVCIS:CSI06:1,2016-07-15T17:00:00Z,28.8667,-90.4833,30.73,11111222 
WAVCIS,ioos:station:WAVCIS:CSI06:1,2016-07-15T18:00:00Z,28.8667,-90.4833,31.5,11111222 
WAVCIS,ioos:station:WAVCIS:CSI06:1,2016-07-15T19:00:00Z,28.8667,-90.4833,31.53,11111222 
WAVCIS,ioos:station:WAVCIS:CSI06:1,2016-07-15T20:00:00Z,28.8667,-90.4833,25.83,11111222 
WAVCIS,ioos:station:WAVCIS:CSI06:1,2016-07-15T21:00:00Z,28.8667,-90.4833,26.04,11111222 
WAVCIS,ioos:station:WAVCIS:CSI06:1,2016-07-15T22:00:00Z,28.8667,-90.4833,26.36,11111222 
WAVCIS,ioos:station:WAVCIS:CSI06:1,2016-07-15T23:00:00Z,28.8667,-90.4833,28.29,11111222 
WAVCIS,ioos:station:WAVCIS:CSI06:1,2016-07-16T00:00:00Z,28.8667,-90.4833,28.01,11111222 
WAVCIS,ioos:station:WAVCIS:CSI06:1,2016-07-16T01:00:00Z,28.8667,-90.4833,28.04,11111222 
WAVCIS,ioos:station:WAVCIS:CSI06:1,2016-07-16T02:00:00Z,28.8667,-90.4833,28.13,11111222 
WAVCIS,ioos:station:WAVCIS:CSI06:1,2016-07-16T03:00:00Z,28.8667,-90.4833,28.4,11111222 
WAVCIS,ioos:station:WAVCIS:CSI06:1,2016-07-16T04:00:00Z,28.8667,-90.4833,28.48,11111222 
WAVCIS,ioos:station:WAVCIS:CSI06:1,2016-07-16T05:00:00Z,28.8667,-90.4833,28.3,11111222 
WAVCIS,ioos:station:WAVCIS:CSI06:1,2016-07-16T06:00:00Z,28.8667,-90.4833,28.56,11111222 
WAVCIS,ioos:station:WAVCIS:CSI06:1,2016-07-16T07:00:00Z,28.8667,-90.4833,28.36,11111222 
WAVCIS,ioos:station:WAVCIS:CSI06:1,2016-07-16T08:00:00Z,28.8667,-90.4833,28.43,11111222 
WAVCIS,ioos:station:WAVCIS:CSI06:1,2016-07-16T09:00:00Z,28.8667,-90.4833,28.44,11111222 
WAVCIS,ioos:station:WAVCIS:CSI06:1,2016-07-16T10:00:00Z,28.8667,-90.4833,28.73,11111222 
WAVCIS,ioos:station:WAVCIS:CSI06:1,2016-07-16T11:00:00Z,28.8667,-90.4833,28.56,11111222 
WAVCIS,ioos:station:WAVCIS:CSI06:1,2016-07-16T12:00:00Z,28.8667,-90.4833,27.31,11111222 
WAVCIS,ioos:station:WAVCIS:CSI06:1,2016-07-16T13:00:00Z,28.8667,-90.4833,27.68,11111222 
WAVCIS,ioos:station:WAVCIS:CSI06:1,2016-07-16T14:00:00Z,28.8667,-90.4833,27.59,11111222 
WAVCIS,ioos:station:WAVCIS:CSI06:1,2016-07-16T15:00:00Z,28.8667,-90.4833,28.87,11111222 
WAVCIS,ioos:station:WAVCIS:CSI06:1,2016-07-16T16:00:00Z,28.8667,-90.4833,29.66,11111222 